Terug naar catalogus

STARLINK-33748

ActiefCommunicatieVLEO
NORAD 63383·PAYLOAD·🇺🇸 United States

Gelanceerd Mar 26, 2025 vanaf Vandenberg Space Force Base

Loading…

Volgende Passages (komende 24 uur)

TLE

VersSource: CelesTrak SupGP

Epoch: Sep 14, 2026, 21:02 UTC

1 63383C 25063W   26257.87687500  .00049975  00000+0  14767-2 0  2579
2 63383  53.1572 261.8776 0001134  98.2772 123.2053 15.34362758    10

Volg STARLINK-33748 in realtime met AllMySat

Download on the App Store